Location: Dvur Kralove nad Labem
(50.4330°N, 15.8170°E)
Time: 21:10:40
(UTC+02:00)

ISS - Pass Details

Date: 28 May 2022
Orbit: 414 x 420 km, 51.6° (Epoch: 30 June)

Event Time Altitude Azimuth Distance (km) Brightness Sun altitude
Rises 22:24:25 0° 284° (WNW) 2,370 0.9 -10.8°
Reaches altitude 10° 22:26:50 10° 268° (W) 1,500 -0.5 -11.0°
Maximum altitude 22:29:27 21° 217° (SW) 996 -2.0 -11.2°
Enters shadow 22:31:09 15° 178° (S) 1,232 -1.9 -11.4°
